Lawrence, KS

7:43 AM CDT on October 22, 2017 (GMT -0500)
Lawrence Municipal

Weather History for KLWC - April, 2014

Change the Weather History Date:

Thursday, April 24, 2014

  Actual Average Record
Temperature  
Mean Temperature 56 °F 58 °F  
Max Temperature 71 °F 70 °F 90 °F (2012)
Min Temperature 41 °F 46 °F 26 °F (2013)
Degree Days  
Heating Degree Days 9 8  
Month to date heating degree days 306 280  
Since 1 July heating degree days 5473 4936  
Cooling Degree Days 0 1  
Month to date cooling degree days 6 17  
Year to date cooling degree days 6 20  
Growing Degree Days 7 (Base 50)    
Moisture  
Dew Point 54 °F    
Average Humidity 73    
Maximum Humidity 100    
Minimum Humidity 45    
Precipitation  
Precipitation 0.96 in 0.15 in 0.96 in (2014)
Month to date precipitation 2.94 2.83  
Year to date precipitation 4.96 7.76  
Sea Level Pressure  
Sea Level Pressure 29.67 in    
Wind  
Wind Speed 10 mph (WNW)    
Max Wind Speed 35 mph    
Max Gust Speed 44 mph    
Visibility 7 miles    
Events Rain , Thunderstorm    
T = Trace of Precipitation, MM = Missing Value Source: NWS Daily Summary

Daily Weather History Graph

Daily Weather History Graph

Search for Another Location

Airport or City:

Trip Planner

Search our weather history database for the weather conditions in past years. The results will help you decide how hot, cold, wet, or windy it might be!

Date:

Astronomy

Apr. 24, 2014 Rise Set
Actual Time 6:31 AM CDT 8:06 PM CDT
Civil Twilight 6:03 AM CDT 8:35 PM CDT
Nautical Twilight 5:29 AM CDT 9:09 PM CDT
Astronomical Twilight 4:53 AM CDT 9:45 PM CDT
Moon 3:40 AM CDT (4/24) 3:25 PM CDT (4/24)
Length of Visible Light 14h 31m
Length of Day
13h 35m
Waning Crescent, 24% of the Moon is Illuminated
Apr 24
Waning Crescent
Apr 29
New
May 6
First Quarter
May 14
Full
May 21
Last Quarter

Hourly Weather History & Observations

Time (CDT) Temp. Dew Point Humidity Pressure Visibility Wind Dir Wind Speed Gust Speed Precip Events Conditions
12:52 AM 68.0 °F 46.9 °F 47% 29.63 in 10.0 mi SE 16.1 mph - N/A   Clear
1:52 AM 69.1 °F 48.9 °F 49% 29.55 in 10.0 mi SE 25.3 mph 32.2 mph N/A   Clear
2:52 AM 69.1 °F 51.1 °F 53% 29.55 in 10.0 mi SSE 18.4 mph 28.8 mph N/A   Clear
3:52 AM 70.0 °F 54.0 °F 57% 29.62 in 10.0 mi WSW 6.9 mph 18.4 mph N/A   Partly Cloudy
4:52 AM 68.0 °F 55.9 °F 65% 29.62 in 10.0 mi SW 3.5 mph - 0.00 in Rain Light Rain
5:52 AM 69.1 °F 55.9 °F 63% 29.61 in 8.0 mi SSW 10.4 mph - 0.00 in Rain Light Rain
6:18 AM 64.9 °F 57.9 °F 78% 29.64 in 7.0 mi SSW 5.8 mph - 0.03 in Rain , Thunderstorm Light Rain
6:52 AM 64.0 °F 59.0 °F 84% 29.62 in 6.0 mi South 8.1 mph - 0.16 in Rain , Thunderstorm Light Rain
7:23 AM 63.0 °F 57.9 °F 84% 29.64 in 6.0 mi SSE 16.1 mph 32.2 mph 0.09 in Rain Light Rain
7:41 AM 62.1 °F 59.0 °F 90% 29.67 in 2.0 mi WSW 6.9 mph - 0.19 in Rain Rain
7:49 AM 62.6 °F 60.8 °F 94% 29.67 in 1.5 mi South 3.5 mph - 0.24 in Rain Rain
7:52 AM 62.1 °F 60.1 °F 93% 29.65 in 2.0 mi SSE 4.6 mph - 0.26 in Rain Rain
8:16 AM 61.0 °F 59.0 °F 93% 29.66 in 1.8 mi ESE 8.1 mph - 0.08 in Rain Light Rain
8:32 AM 61.0 °F 59.0 °F 93% 29.65 in 2.0 mi ENE 8.1 mph - 0.14 in Rain Light Rain
8:43 AM 61.0 °F 59.0 °F 93% 29.64 in 3.0 mi ENE 8.1 mph - 0.15 in Rain Light Rain
8:52 AM 61.0 °F 59.0 °F 93% 29.64 in 5.0 mi ENE 6.9 mph - 0.15 in Rain Light Rain
9:00 AM 60.1 °F 59.0 °F 96% 29.64 in 6.0 mi ENE 8.1 mph - 0.00 in   Overcast
9:25 AM 60.1 °F 57.9 °F 93% 29.63 in 5.0 mi East 8.1 mph - 0.00 in   Overcast
9:52 AM 61.0 °F 57.9 °F 90% 29.62 in 6.0 mi ENE 8.1 mph - 0.00 in   Overcast
10:22 AM 62.1 °F 59.0 °F 90% 29.63 in 8.0 mi East 8.1 mph - N/A   Mostly Cloudy
10:52 AM 63.0 °F 59.0 °F 87% 29.60 in 9.0 mi SE 10.4 mph - N/A   Overcast
11:52 AM 63.0 °F 59.0 °F 87% 29.63 in 2.5 mi WSW 13.8 mph - 0.06 in Rain , Thunderstorm Thunderstorms and Rain
12:01 PM 62.1 °F 59.0 °F 90% 29.66 in 1.5 mi West 23.0 mph 28.8 mph 0.07 in Rain , Thunderstorm Thunderstorms and Rain
12:05 PM 60.1 °F 57.9 °F 93% 29.66 in 1.0 mi WNW 29.9 mph 39.1 mph 0.15 in Rain , Thunderstorm Heavy Rain
12:14 PM 60.1 °F 57.0 °F 90% 29.67 in 1.5 mi WNW 26.5 mph 39.1 mph 0.19 in Rain , Thunderstorm Light Rain
12:17 PM 60.1 °F 57.9 °F 93% 29.67 in 3.0 mi WNW 23.0 mph 38.0 mph 0.19 in Rain , Thunderstorm Light Rain
12:22 PM 59.0 °F 57.0 °F 93% 29.67 in 5.0 mi WNW 28.8 mph 39.1 mph 0.20 in Rain Light Rain
12:29 PM 59.0 °F 57.0 °F 93% 29.67 in 3.0 mi WNW 26.5 mph 39.1 mph 0.23 in Rain , Thunderstorm Rain
12:37 PM 59.0 °F 57.0 °F 93% 29.67 in 2.5 mi WNW 28.8 mph 38.0 mph 0.27 in Rain , Thunderstorm Rain
12:52 PM 57.0 °F 55.0 °F 93% 29.57 in 4.0 mi NNW 29.9 mph 43.7 mph 0.32 in Rain , Thunderstorm Light Rain
1:00 PM 57.0 °F 54.0 °F 89% 29.60 in 10.0 mi NNW 25.3 mph 38.0 mph 0.00 in Rain Light Rain
1:52 PM 57.0 °F 53.1 °F 87% 29.67 in 10.0 mi NNW 10.4 mph - 0.00 in   Overcast
2:12 PM 57.9 °F 54.0 °F 87% 29.68 in 10.0 mi NW 11.5 mph - 0.01 in Rain Light Rain
2:52 PM 59.0 °F 53.1 °F 81% 29.68 in 10.0 mi NNW 16.1 mph - 0.01 in   Overcast
3:48 PM 60.8 °F 51.8 °F 72% 29.71 in 10.0 mi NNW 16.1 mph 26.5 mph N/A   Overcast
3:52 PM 61.0 °F 52.0 °F 72% 29.70 in 10.0 mi NNW 16.1 mph - N/A   Overcast
4:52 PM 60.1 °F 48.9 °F 67% 29.73 in 10.0 mi NNW 21.9 mph 28.8 mph N/A   Overcast
5:52 PM 61.0 °F 48.9 °F 64% 29.77 in 10.0 mi NNW 12.7 mph - 0.00 in   Overcast
6:52 PM 59.0 °F 46.9 °F 64% 29.80 in 10.0 mi NNW 12.7 mph - N/A   Clear
7:52 PM 59.0 °F 46.0 °F 62% 29.81 in 10.0 mi NNW 9.2 mph - N/A   Clear
8:52 PM 53.1 °F 45.0 °F 74% 29.83 in 10.0 mi Calm Calm - N/A   Clear
9:52 PM 46.0 °F 44.1 °F 93% 29.85 in 10.0 mi Calm Calm - N/A   Clear
10:52 PM 44.1 °F 42.1 °F 93% 29.86 in 10.0 mi Calm Calm - N/A   Clear
11:52 PM 43.0 °F 42.1 °F 97% 29.87 in 10.0 mi Calm Calm - N/A   Clear